Pagina principale
METAR-TAF:

METAR-TAF

Aeroporti :

Capo Mele

Andora, Italia

latitudine: 43-57N, longitudine: 008-10E, altezza: 220 m

Osservazione

Il bollettino è stato emesso 1 ora e 5 minuti fa, alle 17:55 UTC
Vento 6 kt da sud
Temperature 22°C
Umidità 83%
Pressione 1013 hPa
Visibilità 10 km o più
nessuna nube inferiore a 1500 m e nessun cumulonembo

METAR: LIMU 191755Z 18006KT CAVOK 22/19 Q1013 RMK SCT SCT200 QUK 2 QUL 1 S VIS MAR 20 KM VIS MIN 9999

Ora: 21:00 (19:00 UTC)


TAF: mancante

Osservazioni e previsioni meteorologiche di più di 4000 aeroporti (messaggi METAR e TAF).

Le stazioni disponibili sono rappresentate dai dischi gialli e rossi sulla carta.

Puntare il mouse per vedere il nome della stazione.

Clicca sopra per visualizzare le osservazioni e previsioni meteorologiche.

Per cambiare la mappa : fare clic sui pulsanti verdi con una croce nera per ingrandire, il pulsante verde con un trattino per diminuire, o sulla freccia verde per le mappe adiacenti.


METAR-TAF: